Location: Krasnoyarskiy
(51.1133°N, 71.6497°E)
Time: 22:00:20
(UTC+00:00)

ATLAS CENTAUR R/B - Pass Details

Date: 27 September 2022
Orbit: 442 x 677 km, 64.7° (Epoch: 29 November)

Event Time Altitude Azimuth Distance (km) Brightness Sun altitude
Rises 22:34:32 0° 156° (SSE) 2,989 5.0 -23.8°
Reaches altitude 10° 22:39:00 10° 117° (ESE) 2,113 4.7 -23.1°
Drops below altitude 10° 22:40:42 10° 96° (E) 2,121 5.0 -22.9°
Enters shadow 23:39:47 -68° 220° (SW) 12,282 8.1 -14.3°
Maximum altitude 00:17:35 59° 126° (SE) 787 2.4 -8.6°
